Licenciado Gustavo Díaz Ordaz International Airport
MMPR : now visible

Airfield :











YOU CAN JOIN US ON...

 
LOGIN :

Register | Disclaimer

   EN    FR    IT 

 









Legend :    VFR   Marginal VFR   IFR   Intensive IFR   Very Intensive IFR
Visi :
Ceiling :
>= 8 km
>= 3000ft
5 to 8 km
1000 to 3000 ft
1500m to 5 km
500 to 1000 ft
800 to 1500m
200 to 500 ft
< 800m
< 200 ft
Symbols :   Thunderstorms  Fog  Heavy snow  Heavy precipitations  Wind > 20 kt






- Airport Elevation : 23 ft
- IATA code : PVR


MMPR - Licenciado Gustavo Díaz Ordaz International

CURRENT METAR :
  • 220549Z 03003KT 12SM SKC 23/22 A2999 RMK SLP154 57003 902 CS

EXPIRED METARs :
  • 220447Z 08003KT 12SM SKC 24/22 A3000 RMK CS
  • 220340Z 13002KT 12SM SCT020 25/22 A3000 RMK 8/500

TAF TAF MMPR
Valid from the 22 at 06:00 until the 23 at 12:00 UTC


220501Z 2206/2312 00000KT P6SM SKC TX30/2218Z TN21/2212Z
FM221800 22010KT P6SM SCT025
FM230300 23005KT P6SM SKC



MET'MAP, your aeronautical weather chart ! - Copyright ORBIFLY December 2007 - Disclaimer

ORBIFLY MET'MAP TEAM :

Programming & Development : Alexandra Zaïnal
Concept & original design : Baudouin d'Aumeries
Assistance for programming : Marc-Olivier Méhu
Technical & hardware support : Manuel Goepfert

Contact : metmap@orbifly.com




SOURCES & CREDITS :

   NOAA       Earth
Advisory